Home   Weather   Reykjavik   Past weeks

Flag for Iceland Past Weather in Reykjavik, Iceland — Yesterday and Last 2 Weeks

Now
46 °F

Passing clouds.


Feels Like: 40 °F
Forecast: N/A
Wind: 14 mph from Southeast

Location: Reykjavik Airport

Current Time: Dec 4, 2016 at 10:28:34 pm

Latest Report: Dec 4, 2016 at 10:00 pm


Visibility: N/A

Pressure: 29.98 "Hg

Humidity: 87%

Dew Point: 43 °F

Location of ReykjavikLocation

Past Weather in Reykjavik — Graph

°F

Reykjavik Temperature Yesterday

Maximum temperature yesterday: 48 °F (at 10:00 am)
Minimum temperature yesterday: 45 °F (at 12:00 am)
Average temperature yesterday: 46 °F

High & Low Weather Summary for the Past Weeks

 TemperatureHumidityPressure
High48 °F (Nov 24, 12:00 pm)100% (Nov 30, 5:00 pm)30.18 "Hg (Nov 30, 5:00 pm)
Low21 °F (Nov 21, 10:00 pm)41% (Nov 26, 12:00 pm)29.39 "Hg (Nov 24, 3:00 pm)
Average39 °F80%29.88 "Hg
* Reported Nov 19 9:00 pm — Dec 4 9:00 pm, Reykjavik, Weather by CustomWeather, © 2016

Note: Actual official high and low records may vary slightly from our data, if they occured in-between our weather recording intervals... More about our weather records

Advertising

Reykjavik Weather History for the Previous 24 Hours

Scroll right to see more
 ConditionsComfort  
Time TempWeatherWind HumidityBarometerVisibility
9:00 pm
Sun, Dec 4
46 °FMostly cloudy.15 mph87%29.98 "HgN/A
8:00 pm46 °FScattered showers. Mostly cloudy.13 mph87%29.95 "HgN/A
7:00 pm46 °FDrizzle. Mostly cloudy.12 mph87%29.95 "Hg6 mi
6:00 pm46 °FDrizzle. Mostly cloudy.14 mph87%29.95 "HgN/A
5:00 pm46 °FOvercast.13 mph87%29.92 "HgN/A
4:00 pm46 °FPassing clouds.7 mph82%29.92 "HgN/A
3:00 pm46 °FPartly sunny.14 mph87%29.92 "HgN/A
2:00 pm48 °FBroken clouds.10 mph82%29.92 "HgN/A
1:00 pm46 °FMostly cloudy.5 mph87%29.92 "HgN/A
12:00 pm46 °FCloudy.8 mph87%29.92 "HgN/A
11:00 am46 °FMostly cloudy.12 mph87%29.89 "Hg5 mi
10:00 am46 °FLight rain. Mostly cloudy.10 mph87%29.89 "Hg5 mi
9:00 am46 °FMostly cloudy.7 mph87%29.86 "HgN/A
8:00 am46 °FDrizzle. Mostly cloudy.10 mph87%29.86 "Hg6 mi
7:00 am45 °FDrizzle. Fog.12 mph93%29.86 "Hg6 mi
6:00 am45 °FMostly cloudy.13 mph93%29.83 "HgN/A
5:00 am45 °FFog.15 mph93%29.80 "Hg6 mi
4:00 am45 °FDrizzle. Fog.17 mph93%29.80 "Hg2 mi
3:00 am45 °FDrizzle. Fog.18 mph93%29.77 "Hg4 mi
2:00 am45 °FDrizzle. Fog.17 mph93%29.77 "Hg2 mi
1:00 am45 °FDrizzle. Fog.17 mph93%29.74 "Hg3 mi
12:00 am45 °FDrizzle. Fog.20 mph93%29.74 "Hg3 mi
11:00 pm
Sat, Dec 3
45 °FDrizzle. Fog.20 mph93%29.71 "Hg4 mi
10:00 pm46 °FFog.21 mph93%29.71 "Hg5 mi
Weather by CustomWeather, © 2016

See weather overviewHow to use our weather pages